GW6267 Weather Reports


time (UTC)temp
C
wind
direction
speed
KPH
gust
KPH
rain 1hr
cm
rain 24hr
cm
rain mn
cm
humidity
%
barometer
mb
20260509000004 13 82 9.7 17.7 0.00 0.00 0.00 60 1028.1
20260508235003 13 81 8.0 17.7 0.00 0.00 0.00 60 1028.0
20260508234003 13 70 4.8 11.3 0.00 0.00 0.00 61 1028.1
20260508233024 13 74 6.4 17.7 0.00 0.00 0.00 62 1027.9
20260508232024 13 82 11.3 24.1 0.00 0.00 0.00 62 1027.7
20260508231003 13 80 8.0 16.1 0.00 0.00 0.00 63 1027.7
20260508230024 13 72 8.0 16.1 0.00 0.00 0.00 62 1027.8
20260508225003 13 77 8.0 16.1 0.00 0.00 0.00 62 1027.7
20260508224003 13 81 9.7 17.7 0.00 0.00 0.00 62 1027.6
20260508223024 13 68 6.4 12.9 0.00 0.00 0.00 62 1027.6
20260508222003 13 75 9.7 17.7 0.00 0.00 0.00 61 1027.4
20260508221004 13 72 9.7 19.3 0.00 0.00 0.00 60 1027.5
20260508220003 13 70 8.0 17.7 0.00 0.00 0.00 60 1027.5
20260508215003 13 72 11.3 20.9 0.00 0.00 0.00 59 1027.5
20260508214024 13 72 11.3 20.9 0.00 0.00 0.00 59 1027.4
20260508213003 13 62 11.3 24.1 0.00 0.00 0.00 58 1027.3
20260508212003 14 62 12.9 22.5 0.00 0.00 0.00 58 1027.2
20260508211024 14 57 12.9 27.4 0.00 0.00 0.00 57 1027.0
20260508210003 14 71 11.3 22.5 0.00 0.00 0.00 57 1026.9
20260508205003 14 73 12.9 22.5 0.00 0.00 0.00 56 1026.9
20260508204003 14 72 12.9 25.7 0.00 0.00 0.00 56 1026.8
20260508203024 15 80 12.9 22.5 0.00 0.00 0.00 55 1026.7
20260508202003 15 76 14.5 30.6 0.00 0.00 0.00 55 1026.5
20260508201003 15 69 12.9 29.0 0.00 0.00 0.00 55 1026.4
20260508200003 15 74 14.5 24.1 0.00 0.00 0.00 54 1026.4
20260508195003 15 76 14.5 29.0 0.00 0.00 0.00 54 1026.3
20260508194025 15 75 17.7 30.6 0.00 0.00 0.00 53 1026.2
20260508193004 15 78 16.1 32.2 0.00 0.00 0.00 53 1026.1
20260508192004 15 86 17.7 35.4 0.00 0.00 0.00 53 1026.2
20260508191004 15 78 16.1 32.2 0.00 0.00 0.00 53 1026.0
20260508190025 15 77 14.5 35.4 0.00 0.00 0.00 53 1026.1
20260508185004 15 78 14.5 29.0 0.00 0.00 0.00 53 1026.2
20260508184004 15 76 14.5 25.7 0.00 0.00 0.00 53 1026.3
20260508183025 15 77 12.9 27.4 0.00 0.00 0.00 52 1026.4
20260508182004 16 76 12.9 25.7 0.00 0.00 0.00 52 1026.4
20260508181004 16 74 14.5 29.0 0.00 0.00 0.00 51 1026.3
20260508180004 16 86 14.5 27.4 0.00 0.00 0.00 51 1026.3
20260508175004 16 78 16.1 33.8 0.00 0.00 0.00 50 1026.4
20260508174004 16 82 17.7 32.2 0.00 0.00 0.00 50 1026.3
20260508173004 16 82 16.1 37.0 0.00 0.00 0.00 49 1026.1
20260508172004 16 80 14.5 29.0 0.00 0.00 0.00 49 1026.1
20260508171004 16 79 14.5 27.4 0.00 0.00 0.00 49 1026.2
20260508170025 17 81 14.5 27.4 0.00 0.00 0.00 48 1026.2
20260508165004 17 76 12.9 30.6 0.00 0.00 0.00 48 1026.2
20260508164025 16 79 9.7 20.9 0.00 0.00 0.00 48 1026.3
20260508163004 16 76 8.0 19.3 0.00 0.00 0.00 48 1026.4
20260508162004 17 80 6.4 14.5 0.00 0.00 0.00 48 1026.3
20260508161004 17 87 6.4 14.5 0.00 0.00 0.00 47 1026.2
20260508160004 17 90 8.0 19.3 0.00 0.00 0.00 46 1026.2
20260508155004 17 87 9.7 19.3 0.00 0.00 0.00 46 1026.1
20260508154004 17 89 9.7 20.9 0.00 0.00 0.00 45 1026.1
20260508153004 17 83 9.7 20.9 0.00 0.00 0.00 44 1026.1
20260508152025 17 85 8.0 17.7 0.00 0.00 0.00 44 1026.2
20260508151004 17 92 9.7 19.3 0.00 0.00 0.00 43 1026.2
20260508150005 17 92 9.7 20.9 0.00 0.00 0.00 43 1026.3
20260508145004 17 90 9.7 20.9 0.00 0.00 0.00 43 1026.3
20260508144004 17 92 9.7 24.1 0.00 0.00 0.00 44 1026.4
20260508143025 17 88 9.7 20.9 0.00 0.00 0.00 44 1026.5
20260508142004 17 95 9.7 20.9 0.00 0.00 0.00 45 1026.5
20260508141004 17 95 9.7 20.9 0.00 0.00 0.00 46 1026.5
20260508140004 18 91 11.3 24.1 0.00 0.00 0.00 46 1026.5
20260508135025 18 92 12.9 22.5 0.00 0.00 0.00 47 1026.5
20260508134004 18 102 11.3 27.4 0.00 0.00 0.00 48 1026.4
20260508133004 18 96 11.3 24.1 0.00 0.00 0.00 49 1026.4
20260508132004 17 100 8.0 17.7 0.00 0.00 0.00 50 1026.4
20260508131004 17 95 8.0 20.9 0.00 0.00 0.00 51 1026.5
20260508130004 17 93 6.4 14.5 0.00 0.00 0.00 51 1026.4
20260508125004 18 100 4.8 12.9 0.00 0.00 0.00 51 1026.3
20260508124004 18 115 6.4 14.5 0.00 0.00 0.00 50 1026.2
20260508123005 18 112 8.0 16.1 0.00 0.00 0.00 50 1026.3
20260508122025 18 116 8.0 16.1 0.00 0.00 0.00 50 1026.3
20260508121004 18 113 8.0 16.1 0.00 0.00 0.00 50 1026.2
20260508120004 18 123 8.0 19.3 0.00 0.00 0.00 49 1026.3
20260508115004 18 119 8.0 17.7 0.00 0.00 0.00 49 1026.2
20260508114025 18 124 9.7 19.3 0.00 0.00 0.00 49 1026.1
20260508113005 18 125 9.7 17.7 0.00 0.00 0.00 49 1026.1
20260508112004 19 123 9.7 20.9 0.00 0.00 0.00 48 1026.2
20260508111025 19 126 8.0 16.1 0.00 0.00 0.00 49 1026.2
20260508110004 19 125 8.0 16.1 0.00 0.00 0.00 48 1026.2
20260508105004 19 121 6.4 16.1 0.00 0.00 0.00 48 1026.3
20260508104004 20 114 8.0 16.1 0.00 0.00 0.00 47 1026.3
20260508103025 20 109 6.4 17.7 0.00 0.00 0.00 47 1026.1
20260508102025 20 123 8.0 12.9 0.00 0.00 0.00 46 1026.2
20260508101004 20 116 8.0 14.5 0.00 0.00 0.00 46 1026.1
20260508100004 20 120 8.0 17.7 0.00 0.00 0.00 46 1026.0
20260508095004 20 121 8.0 14.5 0.00 0.00 0.00 46 1026.0
20260508094004 21 122 11.3 20.9 0.00 0.00 0.00 45 1025.9
20260508093004 21 122 12.9 22.5 0.00 0.00 0.00 45 1025.8
20260508092004 21 124 11.3 24.1 0.00 0.00 0.00 45 1025.7
20260508091025 22 132 9.7 22.5 0.00 0.00 0.00 45 1025.7
20260508090004 22 117 9.7 24.1 0.00 0.00 0.00 43 1025.5
20260508085025 22 127 9.7 22.5 0.00 0.00 0.00 42 1025.5
20260508084004 22 125 8.0 19.3 0.00 0.00 0.00 42 1025.5
20260508083004 22 109 11.3 22.5 0.00 0.00 0.00 42 1025.3
20260508082004 22 110 11.3 20.9 0.00 0.00 0.00 40 1025.4
20260508081025 22 95 12.9 25.7 0.00 0.00 0.00 40 1025.4
20260508080004 22 122 12.9 27.4 0.00 0.00 0.00 41 1025.5
20260508075004 22 131 11.3 27.4 0.00 0.00 0.00 41 1025.4
20260508074004 22 106 11.3 25.7 0.00 0.00 0.00 41 1025.5
20260508073004 23 98 11.3 25.7 0.00 0.00 0.00 41 1025.4
20260508072004 23 99 9.7 22.5 0.00 0.00 0.00 40 1025.5
20260508071025 23 124 8.0 19.3 0.00 0.00 0.00 42 1025.3
20260508070004 23 108 11.3 24.1 0.00 0.00 0.00 42 1025.4
20260508065025 23 101 11.3 25.7 0.00 0.00 0.00 41 1025.5
20260508064004 23 122 11.3 22.5 0.00 0.00 0.00 43 1025.5
20260508063004 23 91 11.3 22.5 0.00 0.00 0.00 42 1025.7
20260508062003 23 105 9.7 20.9 0.00 0.00 0.00 43 1025.7
20260508061004 22 105 11.3 20.9 0.00 0.00 0.00 41 1025.9
20260508060004 22 92 11.3 20.9 0.00 0.00 0.00 42 1026.0
20260508055003 22 118 12.9 22.5 0.00 0.00 0.00 43 1026.2
20260508054004 22 100 11.3 25.7 0.00 0.00 0.00 43 1026.3
20260508053004 22 113 12.9 22.5 0.00 0.00 0.00 45 1026.4
20260508052003 22 85 11.3 24.1 0.00 0.00 0.00 45 1026.5
20260508051003 22 74 12.9 24.1 0.00 0.00 0.00 46 1026.6
20260508050004 22 80 12.9 29.0 0.00 0.00 0.00 45 1026.7
20260508045004 22 72 14.5 24.1 0.00 0.00 0.00 46 1026.9
20260508044004 21 121 12.9 32.2 0.00 0.00 0.00 47 1027.0
20260508043004 21 97 9.7 22.5 0.00 0.00 0.00 50 1027.4
20260508042003 21 106 11.3 22.5 0.00 0.00 0.00 51 1027.5
20260508041004 21 89 12.9 29.0 0.00 0.00 0.00 52 1027.7
20260508040004 20 83 14.5 27.4 0.00 0.00 0.00 52 1027.9
20260508035024 20 74 14.5 27.4 0.00 0.00 0.00 52 1028.1
20260508034003 20 75 16.1 29.0 0.00 0.00 0.00 52 1028.5
20260508033003 20 86 16.1 32.2 0.00 0.00 0.00 52 1028.7
20260508032003 20 85 16.1 32.2 0.00 0.00 0.00 53 1028.7
20260508031003 20 77 12.9 35.4 0.00 0.00 0.00 53 1028.9
20260508030004 20 65 16.1 32.2 0.00 0.00 0.00 53 1029.0
20260508025003 19 68 16.1 32.2 0.00 0.00 0.00 53 1029.0
20260508024003 18 80 14.5 29.0 0.00 0.00 0.00 56 1029.1
20260508023003 18 80 16.1 29.0 0.00 0.00 0.00 57 1029.3
20260508022003 18 87 14.5 29.0 0.00 0.00 0.00 57 1029.4
20260508021003 18 91 14.5 29.0 0.00 0.00 0.00 58 1029.5
20260508020024 17 80 17.7 30.6 0.00 0.00 0.00 58 1029.6
20260508015003 17 93 17.7 37.0 0.00 0.00 0.00 58 1029.7
20260508014003 17 86 19.3 37.0 0.00 0.00 0.00 58 1029.7
20260508013003 17 80 16.1 33.8 0.00 0.00 0.00 58 1029.8
20260508012003 17 88 16.1 33.8 0.00 0.00 0.00 59 1029.8
20260508011003 17 77 17.7 29.0 0.00 0.00 0.00 61 1030.0
20260508010004 16 81 14.5 27.4 0.00 0.00 0.00 61 1030.1
20260508005003 16 78 17.7 30.6 0.00 0.00 0.00 61 1030.2
20260508004003 16 82 14.5 27.4 0.00 0.00 0.00 62 1030.4
20260508003003 16 88 14.5 29.0 0.00 0.00 0.00 62 1030.2
20260508002003 16 90 14.5 29.0 0.00 0.00 0.00 63 1030.1
20260508001003 15 94 11.3 20.9 0.00 0.00 0.00 63 1030.1